This demonstration page uses our WeatherBlox Daily Observations layout. Learn more.

Left ArrowRight Arrow

41.12389, -100.76542

Hourly Observations for December 3, 2017

Temp ( °F °C ) Dew Point ( °F °C ) Humidity (%) Winds ( mph kmh ) Pressure ( in mb ) Visibility ( mi km ) Precip ( " mm )
12:53 am 00:53 Clear 36 2.2 23 -5 59 59 Calm 30.01 1016 10 16 0.00 0.00
1:53 am 01:53 Clear 34 1.1 23 -5 64 64 ENE 3 6 29.99 1016 10 16 0.00 0.00
2:53 am 02:53 Clear 32 0 23 -5 69 69 ESE 7 11 29.98 1015 10 16 0.00 0.00
3:53 am 03:53 Clear 32 0 24 -4.4 73 73 E 3 6 29.96 1015 10 16 0.00 0.00
4:53 am 04:53 Clear 33 0.6 25 -3.9 72 72 ESE 8 13 29.95 1014 10 16 0.00 0.00
5:53 am 05:53 Clear 34 1.1 25 -3.9 70 70 ESE 9 15 29.93 1014 10 16 0.00 0.00
6:53 am 06:53 Clear 35 1.7 26 -3.3 70 70 ESE 10 17 29.93 1013 10 16 0.00 0.00
7:53 am 07:53 Sunny 33 0.6 26 -3.3 75 75 E 7 11 29.93 1013 10 16 0.00 0.00
8:53 am 08:53 Sunny 35 1.7 28 -2.2 76 76 SE 5 7 29.90 1012 10 16 0.00 0.00
9:53 am 09:53 Sunny 45 7.2 32 0 61 61 Calm 29.86 1011 10 16 0.00 0.00
10:53 am 10:53 Sunny 49 9.4 33 0.6 55 55 SSE 5 7 29.83 1010 10 16 0.00 0.00
11:53 am 11:53 Sunny 54 12.2 33 0.6 45 45 SSW 9 15 29.78 1009 10 16 0.00 0.00
12:53 pm 12:53 Sunny 54 12.2 34 1.1 47 47 SW 9 15 29.75 1007 10 16 0.00 0.00
1:53 pm 13:53 Sunny 54 12.2 35 1.7 49 49 S 8 13 29.70 1006 10 16 0.00 0.00
2:53 pm 14:53 Sunny 55 12.8 38 3.3 53 53 SSE 7 11 29.66 1005 10 16 0.00 0.00
3:53 pm 15:53 Sunny 54 12.2 41 5 62 62 SSE 7 11 29.64 1004 10 16 0.00 0.00
4:53 pm 16:53 Sunny 52 11.1 42 5.6 69 69 SE 5 7 29.63 1004 10 16 0.00 0.00
5:53 pm 17:53 Clear 47 8.3 41 5 80 80 Calm 29.63 1003 10 16 0.00 0.00
6:53 pm 18:53 Clear 41 5 38 3.3 89 89 E 3 6 29.62 1003 10 16 0.00 0.00
7:53 pm 19:53 Clear 39 3.9 37 2.8 93 93 ESE 6 9 29.60 1002 9 14 0.00 0.00
8:53 pm 20:53 Clear 39 3.9 38 3.3 96 96 E 3 6 29.57 1001 7 11 0.00 0.00
9:53 pm 21:53 Clear with Mist and Fog 39 3.9 38 3.3 96 96 SE 3 6 29.52 1000 5 8 0.00 0.00
10:36 pm 22:36 Clear with Mist and Fog 37 2.8 36 2.2 96 96 E 5 7 29.56 1001 2 3 0.00 0.00
10:39 pm 22:39 Clear with Mist and Fog 36 2.2 36 2.2 100 100 E 3 6 29.56 1001 1 1 0.00 0.00
10:43 pm 22:43 Mostly Cloudy with Fog 34 1.1 34 1.1 100 100 Calm 29.56 1001 0 0 0.00 0.00
10:53 pm 22:53 Mostly Cloudy with Fog 35 1.7 35 1.7 100 100 Calm 29.48 998 0 0 0.00 0.00
11:53 pm 23:53 Mostly Cloudy with Fog 32 0 29 -1.7 88 88 W 5 7 29.47 998 0 0 0.00 0.00

Powered by AerisWeather